Weather History for Findlay, OH

Change the Weather History Date:

Saturday, August 17, 2013

  Actual Average Record
Temperature  
Mean Temperature 66 °F -  
Max Temperature 78 °F 80 °F 99 °F (1988)
Min Temperature 55 °F 61 °F 49 °F (1976)
Cooling Degree Days 2    
Growing Degree Days 16 (Base 50)    
Moisture  
Dew Point 56 °F    
Average Humidity 70    
Maximum Humidity 93    
Minimum Humidity 54    
Precipitation  
Precipitation 0.00 in - - ()
Sea Level Pressure  
Sea Level Pressure 30.19 in    
Wind  
Wind Speed 4 mph (NE)    
Max Wind Speed 14 mph    
Max Gust Speed 20 mph    
Visibility 10 miles    
Events      
Averages and records for this station are not official NWS values.
T = Trace of Precipitation, MM = Missing Value Source: NWS Daily Summary

Daily Weather History Graph

Daily Weather History Graph

Search for Another Location

Airport:

Trip Planner

Search our weather history database for the weather conditions in past years. The results will help you decide how hot, cold, wet, or windy it might be!

Date:

Astronomy

Aug. 17, 2013 Rise Set
Actual Time 6:46 AM EDT 8:29 PM EDT
Civil Twilight 6:17 AM EDT 8:59 PM EDT
Nautical Twilight 5:41 AM EDT 9:34 PM EDT
Astronomical Twilight 5:03 AM EDT 10:12 PM EDT
Moon 5:45 PM EDT (8/17) 2:47 AM EDT (8/17)
Length of Visible Light 14h 41m
Length of Day
13h 43m
Waxing Gibbous, 84% of the Moon is Illuminated
Aug 17
Waxing Gibbous
Aug 20
Full
Aug 28
Last Quarter
Sep 5
New
Sep 12
First Quarter

Hourly Weather History & Observations

Time (EDT) Temp. Dew Point Humidity Pressure Visibility Wind Dir Wind Speed Gust Speed Precip Events Conditions
12:53 AM 57.9 °F 54.0 °F 87% 30.18 in 10.0 mi Calm Calm - N/A   Clear
1:53 AM 55.9 °F 54.0 °F 93% 30.19 in 9.0 mi Calm Calm - N/A   Clear
2:53 AM 57.0 °F 53.1 °F 87% 30.19 in 10.0 mi Calm Calm - N/A   Clear
3:53 AM 57.0 °F 52.0 °F 83% 30.19 in 10.0 mi Calm Calm - N/A   Clear
4:53 AM 55.0 °F 52.0 °F 89% 30.20 in 10.0 mi Calm Calm - N/A   Clear
5:53 AM 57.0 °F 52.0 °F 83% 30.20 in 10.0 mi Calm Calm - N/A   Clear
6:53 AM 57.9 °F 52.0 °F 81% 30.21 in 10.0 mi NE 3.5 mph - N/A   Clear
7:53 AM 60.1 °F 55.0 °F 83% 30.22 in 10.0 mi Calm Calm - N/A   Clear
8:53 AM 64.9 °F 54.0 °F 68% 30.22 in 10.0 mi ENE 6.9 mph - N/A   Clear
9:53 AM 68.0 °F 55.0 °F 63% 30.22 in 10.0 mi ENE 9.2 mph - N/A   Clear
10:53 AM 69.1 °F 57.0 °F 65% 30.23 in 10.0 mi East 6.9 mph - N/A   Clear
11:53 AM 73.0 °F 57.0 °F 57% 30.22 in 10.0 mi ENE 8.1 mph - N/A   Clear
12:53 PM 75.0 °F 57.9 °F 55% 30.21 in 10.0 mi NE 3.5 mph - N/A   Clear
1:53 PM 75.0 °F 59.0 °F 57% 30.20 in 10.0 mi East 5.8 mph - N/A   Partly Cloudy
2:53 PM 75.9 °F 60.1 °F 58% 30.19 in 10.0 mi NE 10.4 mph - N/A   Partly Cloudy
3:53 PM 77.0 °F 59.0 °F 54% 30.17 in 10.0 mi NE 9.2 mph 19.6 mph N/A   Clear
4:53 PM 78.1 °F 61.0 °F 56% 30.17 in 10.0 mi NE 9.2 mph - N/A   Partly Cloudy
5:53 PM 75.9 °F 60.1 °F 58% 30.17 in 10.0 mi NE 11.5 mph - N/A   Clear
6:53 PM 75.0 °F 59.0 °F 57% 30.17 in 10.0 mi NE 13.8 mph - N/A   Clear
7:53 PM 73.0 °F 57.0 °F 57% 30.17 in 10.0 mi NE 9.2 mph - N/A   Clear
8:53 PM 70.0 °F 57.0 °F 63% 30.16 in 10.0 mi NE 6.9 mph - N/A   Clear
9:53 PM 68.0 °F 57.9 °F 70% 30.17 in 10.0 mi ENE 6.9 mph - N/A   Clear
10:53 PM 66.9 °F 59.0 °F 76% 30.17 in 10.0 mi ENE 8.1 mph - N/A   Scattered Clouds
11:53 PM 66.0 °F 60.1 °F 81% 30.15 in 10.0 mi ENE 9.2 mph - N/A   Clear